Flag for U.S.A. Weather past 2 weeks in Antioch, California, U.S.A.

Now
63 °F

Passing clouds.


Feels Like: 63 °F
Forecast: 54 / 76 °F
Wind: 15 mph from West

Location: Buchanan Field

Current Time: May 25, 2015 at 6:55:43 PM

Latest Report: May 25, 2015 at 5:53 PM


Visibility: 10 mi

Pressure: 29.88 "Hg

Humidity: 60%

Dew point: 49 °F

Location of AntiochLocation

Historic Weather in Antioch — Graph

°F

Antioch temperature yesterday

Maximum temperature yesterday: 71 °F (at 1:53 PM)
Minimum temperature yesterday: 54 °F (at 1:53 AM)
Average temperature yesterday: 61 °F

Past Weeks' High & Low Weather Summary

 TemperatureHumidityPressure
High71 °F (May 19, 3:53 PM)86% (May 15, 4:53 AM)30.10 "Hg (May 15, 4:53 AM)
Low50 °F (May 12, 3:53 AM)30% (May 12, 4:53 PM)29.74 "Hg (May 14, 5:53 PM)
Average60 °F65%29.92 "Hg
* Reported May 10 4:53 PM — May 25 4:53 PM, Antioch, Weather by CustomWeather, © 2015

Note: Actual official high and low records may vary slightly from our data, if they occured in-between our weather recording intervals... More about our weather records

Advertising

Antioch weather history for previous 24 hours

 ConditionsComfort  
Time TempWeatherWind HumidityBarometerVisibility
4:53 PM
Mon, May 25
66 °FPassing clouds.20 mph54%29.88 "Hg10 mi
3:53 PM71 °FPassing clouds.14 mph45%29.88 "Hg10 mi
2:53 PM71 °FPassing clouds.14 mph45%29.89 "Hg10 mi
1:53 PM70 °FPassing clouds.17 mph47%29.90 "Hg10 mi
12:53 PM69 °FPassing clouds.14 mph51%29.91 "Hg10 mi
11:53 AM66 °FSunny.14 mph54%29.92 "Hg10 mi
10:53 AM62 °FSunny.16 mph62%29.92 "Hg10 mi
9:53 AM59 °FPartly sunny.18 mph69%29.92 "Hg10 mi
8:53 AM57 °FOvercast.15 mph72%29.92 "Hg10 mi
7:53 AM55 °FOvercast.16 mph77%29.91 "Hg10 mi
6:53 AM54 °FOvercast.13 mph80%29.90 "Hg10 mi
5:53 AM54 °FOvercast.13 mph77%29.90 "Hg10 mi
4:53 AM55 °FOvercast.13 mph80%29.88 "Hg10 mi
3:53 AM55 °FOvercast.14 mph77%29.89 "Hg10 mi
2:53 AM55 °FOvercast.15 mph80%29.89 "Hg10 mi
1:53 AM56 °FOvercast.10 mph81%29.90 "Hg10 mi
12:53 AM56 °FOvercast.14 mph81%29.90 "Hg10 mi
11:53 PM
Sun, May 24
56 °FOvercast.13 mph77%29.92 "Hg10 mi
10:53 PM56 °FOvercast.16 mph77%29.93 "Hg10 mi
9:53 PM56 °FOvercast.16 mph77%29.93 "Hg10 mi
8:53 PM56 °FPartly sunny.14 mph77%29.91 "Hg10 mi
7:53 PM58 °FScattered clouds.18 mph72%29.89 "Hg10 mi
6:53 PM62 °FSunny.16 mph62%29.89 "Hg10 mi
Weather by CustomWeather, © 2015

See weather overviewHow to use our weather pages